• En España
  • Lista de países
  • Para 7 días
  • Temperatura del agua
  • Mapa Satelital
  • El tiempo en el mapa
  • Informadores
  • user-avatar
    Iniciar sesión

    Tiempo cada hora Benguela

    Hoy, 19 Octubre, Viernes

    Tiempo Temperatura Precipitaciones Viento Presión Humedad
    00:00 +27°C° 0 mm 1 mps 758 mmHg 83%
    01:00 +27°C° 0 mm 1 mps 758 mmHg 84%
    02:00 +27°C° 0 mm 1 mps 758 mmHg 85%
    03:00 +27°C° 0 mm 1 mps 758 mmHg 86%
    04:00 +26°C° 0 mm 1 mps 758 mmHg 86%
    05:00 +27°C° 0 mm 1 mps 758 mmHg 83%
    06:00 +27°C° 0 mm 1 mps 758 mmHg 81%
    07:00 +28°C° 0 mm 1 mps 759 mmHg 78%
    08:00 +30°C° 0 mm 1 mps 759 mmHg 70%
    09:00 +32°C° 0 mm 2 mps 759 mmHg 61%
    10:00 +35°C° 0 mm 2 mps 758 mmHg 53%
    11:00 +36°C° 0 mm 3 mps 758 mmHg 52%
    12:00 +36°C° 0 mm 4 mps 757 mmHg 50%
    13:00 +37°C° 0 mm 4 mps 756 mmHg 48%
    14:00 +36°C° 0 mm 4 mps 756 mmHg 52%
    15:00 +35°C° 0 mm 4 mps 755 mmHg 55%
    16:00 +34°C° 0 mm 4 mps 755 mmHg 58%
    17:00 +33°C° 0 mm 4 mps 756 mmHg 63%
    18:00 +31°C° 0 mm 3 mps 756 mmHg 68%
    19:00 +30°C° 0 mm 3 mps 756 mmHg 73%
    20:00 +29°C° 0.1 mm 3 mps 757 mmHg 73%
    21:00 +29°C° 0.1 mm 2 mps 757 mmHg 73%
    22:00 +29°C° 0.1 mm 2 mps 758 mmHg 74%
    23:00 +29°C° 0.2 mm 2 mps 758 mmHg 74%

    Mañana, 20 Octubre, Sábado

    Tiempo Temperatura Precipitaciones Viento Presión Humedad
    00:00 +29°C° 0.2 mm 2 mps 758 mmHg 75%
    01:00 +29°C° 0.2 mm 2 mps 757 mmHg 75%
    02:00 +28°C° 0.1 mm 2 mps 757 mmHg 79%
    03:00 +28°C° 0.1 mm 2 mps 757 mmHg 82%
    04:00 +27°C° 0.1 mm 2 mps 757 mmHg 86%
    05:00 +27°C° 0.2 mm 1 mps 757 mmHg 84%
    06:00 +28°C° 0.2 mm 1 mps 758 mmHg 83%
    07:00 +28°C° 0.2 mm 1 mps 758 mmHg 81%
    08:00 +30°C° 0.2 mm 1 mps 758 mmHg 72%
    09:00 +32°C° 0.2 mm 2 mps 758 mmHg 62%
    10:00 +35°C° 0.2 mm 2 mps 758 mmHg 53%
    11:00 +36°C° 0.1 mm 3 mps 758 mmHg 52%
    12:00 +36°C° 0.1 mm 3 mps 757 mmHg 51%
    13:00 +37°C° 0.1 mm 4 mps 756 mmHg 50%
    14:00 +36°C° 0.1 mm 4 mps 756 mmHg 53%
    15:00 +35°C° 0.1 mm 4 mps 756 mmHg 56%
    16:00 +34°C° 0.1 mm 4 mps 756 mmHg 60%
    17:00 +33°C° 1.1 mm 4 mps 756 mmHg 65%
    18:00 +30°C° 1.1 mm 4 mps 757 mmHg 71%
    19:00 +29°C° 1.1 mm 3 mps 757 mmHg 76%
    20:00 +29°C° 0.4 mm 3 mps 758 mmHg 76%
    21:00 +29°C° 0.4 mm 3 mps 758 mmHg 75%
    22:00 +29°C° 0.4 mm 2 mps 758 mmHg 75%
    23:00 +29°C° 0.1 mm 2 mps 758 mmHg 76%

    Pasado mañana, 21 Octubre, Domingo

    Tiempo Temperatura Precipitaciones Viento Presión Humedad
    00:00 +29°C° 0.1 mm 2 mps 758 mmHg 77%
    01:00 +29°C° 0.1 mm 2 mps 757 mmHg 77%
    02:00 +29°C° 0.1 mm 2 mps 757 mmHg 79%
    03:00 +28°C° 0.1 mm 2 mps 757 mmHg 80%
    04:00 +28°C° 0.1 mm 2 mps 757 mmHg 81%
    05:00 +28°C° 0.4 mm 2 mps 757 mmHg 80%
    06:00 +29°C° 0.4 mm 2 mps 758 mmHg 79%
    07:00 +29°C° 0.4 mm 2 mps 758 mmHg 77%
    08:00 +30°C° 0.1 mm 2 mps 758 mmHg 72%
    09:00 +31°C° 0.1 mm 2 mps 758 mmHg 67%
    10:00 +32°C° 0.1 mm 2 mps 758 mmHg 63%
    11:00 +34°C° 0.1 mm 2 mps 757 mmHg 60%
    12:00 +35°C° 0.1 mm 3 mps 757 mmHg 58%
    13:00 +35°C° 0.1 mm 3 mps 756 mmHg 56%
    14:00 +35°C° 0.1 mm 4 mps 756 mmHg 56%
    15:00 +35°C° 0.1 mm 4 mps 755 mmHg 56%
    16:00 +35°C° 0.1 mm 4 mps 755 mmHg 57%
    17:00 +34°C° 1.4 mm 4 mps 756 mmHg 62%
    18:00 +33°C° 1.4 mm 3 mps 757 mmHg 67%
    19:00 +31°C° 1.4 mm 2 mps 758 mmHg 73%
    20:00 +31°C° 0.4 mm 3 mps 758 mmHg 73%
    21:00 +30°C° 0.4 mm 3 mps 758 mmHg 74%
    22:00 +30°C° 0.4 mm 3 mps 758 mmHg 74%
    23:00 +30°C° 0.1 mm 3 mps 758 mmHg 75%

    22 Octubre, Lunes

    Tiempo Temperatura Precipitaciones Viento Presión Humedad
    00:00 +30°C° 0.1 mm 3 mps 758 mmHg 75%
    01:00 +30°C° 0.1 mm 2 mps 757 mmHg 76%
    02:00 +30°C° 0.4 mm 2 mps 757 mmHg 76%
    03:00 +30°C° 0.4 mm 2 mps 757 mmHg 76%
    04:00 +29°C° 0.4 mm 2 mps 757 mmHg 76%
    05:00 +30°C° 0 mm 2 mps 757 mmHg 74%
    06:00 +30°C° 0 mm 2 mps 757 mmHg 72%
    07:00 +30°C° 0 mm 2 mps 757 mmHg 71%
    08:00 +31°C° 0 mm 2 mps 757 mmHg 67%
    09:00 +32°C° 0 mm 2 mps 757 mmHg 63%
    10:00 +34°C° 0 mm 2 mps 757 mmHg 58%
    11:00 +35°C° 0 mm 2 mps 756 mmHg 54%
    12:00 +36°C° 0 mm 3 mps 756 mmHg 49%
    13:00 +37°C° 0 mm 3 mps 755 mmHg 44%
    14:00 +37°C° 0 mm 3 mps 755 mmHg 45%
    15:00 +37°C° 0 mm 4 mps 755 mmHg 47%
    16:00 +37°C° 0 mm 4 mps 754 mmHg 49%
    17:00 +35°C° 0 mm 3 mps 755 mmHg 56%
    18:00 +33°C° 0 mm 3 mps 756 mmHg 62%
    19:00 +31°C° 0 mm 2 mps 757 mmHg 68%
    20:00 +31°C° 0.4 mm 2 mps 757 mmHg 70%
    21:00 +30°C° 0.4 mm 3 mps 758 mmHg 71%
    22:00 +30°C° 0.4 mm 3 mps 758 mmHg 73%
    23:00 +30°C° 0.1 mm 3 mps 758 mmHg 72%

    23 Octubre, Martes

    Tiempo Temperatura Precipitaciones Viento Presión Humedad
    00:00 +30°C° 0.1 mm 3 mps 758 mmHg 71%
    01:00 +30°C° 0.1 mm 3 mps 758 mmHg 71%
    02:00 +30°C° 0 mm 2 mps 758 mmHg 73%
    03:00 +29°C° 0 mm 2 mps 757 mmHg 75%
    04:00 +29°C° 0 mm 1 mps 757 mmHg 77%
    05:00 +29°C° 0 mm 1 mps 758 mmHg 76%
    06:00 +29°C° 0 mm 1 mps 759 mmHg 75%
    07:00 +29°C° 0 mm 1 mps 759 mmHg 74%
    08:00 +31°C° 0.1 mm 1 mps 759 mmHg 67%
    09:00 +34°C° 0.1 mm 2 mps 759 mmHg 59%
    10:00 +36°C° 0.1 mm 2 mps 759 mmHg 52%
    11:00 +36°C° 0 mm 3 mps 758 mmHg 50%
    12:00 +37°C° 0 mm 4 mps 758 mmHg 48%
    13:00 +37°C° 0 mm 4 mps 757 mmHg 46%
    14:00 +36°C° 0.3 mm 4 mps 757 mmHg 51%
    15:00 +35°C° 0.3 mm 4 mps 757 mmHg 56%
    16:00 +34°C° 0.3 mm 4 mps 757 mmHg 61%
    17:00 +33°C° 1.3 mm 3 mps 757 mmHg 67%
    18:00 +31°C° 1.3 mm 2 mps 758 mmHg 73%
    19:00 +30°C° 1.3 mm 1 mps 759 mmHg 79%
    20:00 +30°C° 1.9 mm 1 mps 759 mmHg 80%
    21:00 +30°C° 1.9 mm 1 mps 759 mmHg 80%
    22:00 +30°C° 1.9 mm 2 mps 760 mmHg 80%
    23:00 +30°C° 0.7 mm 2 mps 759 mmHg 79%

    24 Octubre, Miércoles

    Tiempo Temperatura Precipitaciones Viento Presión Humedad
    00:00 +30°C° 0.7 mm 2 mps 759 mmHg 78%
    01:00 +30°C° 0.7 mm 2 mps 758 mmHg 77%
    02:00 +30°C° 0.2 mm 2 mps 758 mmHg 77%
    03:00 +30°C° 0.2 mm 2 mps 758 mmHg 77%
    04:00 +30°C° 0.2 mm 2 mps 758 mmHg 77%
    05:00 +30°C° 0 mm 2 mps 759 mmHg 75%
    06:00 +30°C° 0 mm 3 mps 759 mmHg 74%
    07:00 +30°C° 0 mm 3 mps 759 mmHg 72%
    08:00 +33°C° 0.2 mm 3 mps 759 mmHg 65%
    09:00 +35°C° 0.2 mm 2 mps 759 mmHg 58%
    10:00 +36°C° 0.2 mm 2 mps 759 mmHg 51%
    11:00 +37°C° 0 mm 3 mps 759 mmHg 49%
    12:00 +37°C° 0 mm 4 mps 758 mmHg 47%
    13:00 +38°C° 0 mm 4 mps 757 mmHg 46%
    14:00 +37°C° 0.1 mm 4 mps 757 mmHg 48%
    15:00 +36°C° 0.1 mm 4 mps 757 mmHg 50%
    16:00 +36°C° 0.1 mm 4 mps 757 mmHg 52%
    17:00 +35°C° 0.1 mm 4 mps 757 mmHg 56%
    18:00 +34°C° 0.1 mm 4 mps 758 mmHg 60%
    19:00 +33°C° 0.1 mm 3 mps 758 mmHg 63%
    20:00 +31°C° 0.2 mm 3 mps 759 mmHg 64%
    21:00 +31°C° 0.2 mm 3 mps 759 mmHg 65%
    22:00 +31°C° 0.2 mm 2 mps 759 mmHg 66%
    23:00 +31°C° 0 mm 2 mps 759 mmHg 68%
    Mostrar más